This is the latest recevied weather packets stored in our database for station/object PY5TG-13. If no packets are shown the sender has not sent any weather packets the latest 10 day(s).
| Time | Temp. | Humidity | Pressure | Rain* | Wind** | Luminosity | Snow |
|---|---|---|---|---|---|---|---|
| 1787934606 | 26.11° C | 67% | 1006.4 hPa | 0 mm | - | 324 W/m² | - |
| 1787934069 | 25.56° C | 66% | 1006.7 hPa | 0 mm | - | 345 W/m² | - |
| 1787934011 | 25.56° C | 65% | 1006.8 hPa | 0 mm | - | 265 W/m² | - |
| 1787933429 | 25.56° C | 64% | 1006.7 hPa | 0 mm | - | 287 W/m² | - |
| 1787932882 | 25.56° C | 65% | 1007.2 hPa | 0 mm | - | 215 W/m² | - |
| 1787932802 | 26.11° C | 63% | 1007 hPa | 0 mm | - | 274 W/m² | - |
| 1787932223 | 25.56° C | 66% | 1007.4 hPa | 0 mm | - | 270 W/m² | - |
| 1787931610 | 26.11° C | 65% | 1007.8 hPa | 0 mm | - | 211 W/m² | - |
| 1787931009 | 25.56° C | 65% | 1008.1 hPa | 0 mm | - | 256 W/m² | - |
| 1787929208 | 25.56° C | 65% | 1008.5 hPa | 0 mm | - | 396 W/m² | - |
| 1787928856 | 26.11° C | 64% | 1008.8 hPa | 0 mm | - | 164 W/m² | - |
| 1787928606 | 26.11° C | 64% | 1008.5 hPa | 0 mm | - | 377 W/m² | - |
| 1787928008 | 25.56° C | 65% | 1008.8 hPa | 0 mm | - | 374 W/m² | - |
| 1787926815 | 25.56° C | 66% | 1008.8 hPa | 0 mm | - | 363 W/m² | - |
| 1787925608 | 25.56° C | 66% | 1009 hPa | 0 mm | - | 356 W/m² | - |
| 1787925009 | 24.44° C | 67% | 1009.6 hPa | 0 mm | - | 342 W/m² | - |
| 1787923869 | 23.89° C | 69% | 1010 hPa | 0 mm | - | 297 W/m² | - |
| 1787923802 | 23.89° C | 67% | 1009.9 hPa | 0 mm | - | 298 W/m² | - |
| 1787922607 | 23.33° C | 70% | 1010.2 hPa | 0 mm | - | 270 W/m² | - |
| 1787921411 | 23.33° C | 71% | 1010.2 hPa | 0 mm | - | 203 W/m² | - |
| 1787920807 | 22.78° C | 71% | 1010.2 hPa | 0 mm | - | 220 W/m² | - |
| 1787920207 | 22.22° C | 73% | 1010.2 hPa | 0 mm | - | 195 W/m² | - |
| 1787919666 | 22.22° C | 72% | 1010.2 hPa | 0 mm | - | 234 W/m² | - |
| 1787919006 | 21.67° C | 73% | 1010.5 hPa | 0 mm | - | 183 W/m² | - |
| 1787918414 | 21.67° C | 73% | 1010.4 hPa | 0 mm | - | 166 W/m² | - |
* Rain latest hour (hover to see other rain measurements)
** Current wind speed in m/s (hover to see current wind gust speed)